Theta_e
326 316 310 308 298 294 290 293 297 315 318 324 326 324 323 325 321 312 334 345 347 351 359 361 365 363 361 360 359 357 358 358 358 359 359 361 361 361 362 362 363 363 360 358 356 355 354 355 357
324 312 308 300 293 288 291 296 298 310 323 326 324 323 322 320 332 333 334 346 346 351 357 359 364 364 362 361 359 358 358 358 357 358 358 359 361 361 360 361 361 360 360 359 357 354 353 354 355
314 310 302 294 289 289 291 297 317 323 326 329 329 329 326 326 334 336 346 350 347 349 355 359 364 364 363 362 360 359 358 357 357 357 357 358 359 360 360 361 361 359 357 357 356 354 354 354 355
309 304 298 293 292 294 295 297 315 323 325 330 333 326 332 341 337 342 355 347 343 351 355 362 363 364 364 362 361 360 358 358 358 357 357 357 357 359 360 360 360 360 359 358 356 356 355 354 354
304 297 292 289 290 295 298 299 324 320 323 332 335 329 327 339 349 349 345 352 350 352 355 358 362 363 363 361 361 360 359 360 360 358 358 358 359 359 359 360 359 359 360 359 358 358 356 354 354
298 294 288 287 291 295 298 301 312 327 331 333 332 330 331 342 334 345 348 347 352 351 352 356 361 362 362 362 362 360 359 358 359 360 359 359 359 359 359 360 360 359 360 360 360 359 357 355 353
296 292 290 288 290 294 299 301 302 312 313 311 320 315 322 332 334 344 343 343 343 347 348 349 353 357 360 361 360 360 359 358 358 358 358 359 359 359 359 359 359 360 360 360 359 358 357 355 353
296 292 288 287 290 291 299 301 300 304 309 311 313 307 307 323 331 330 331 333 338 336 335 337 339 342 349 352 360 360 360 360 359 359 359 358 359 359 359 358 358 359 359 359 359 359 358 356 355
296 291 287 289 293 296 299 305 313 318 315 317 318 318 327 330 327 325 325 327 329 331 329 331 332 332 335 348 353 359 360 360 360 359 360 357 352 352 355 357 357 358 359 359 358 358 357 356 356
294 288 291 295 295 294 299 304 306 312 313 314 316 321 323 324 323 321 321 320 321 322 325 325 328 329 331 338 345 346 347 349 350 351 351 351 350 349 353 355 357 359 359 358 358 358 357 357 350
291 291 294 297 299 299 302 304 306 309 306 312 313 317 319 320 319 319 319 320 319 320 323 324 326 328 328 329 330 333 336 337 339 341 343 343 346 345 346 347 347 349 354 353 353 353 353 349 348
298 297 297 299 301 300 303 306 306 308 310 317 318 319 319 317 317 318 318 319 320 321 322 324 325 326 327 327 327 327 328 330 332 334 338 340 338 339 340 340 341 338 344 347 348 348 348 347 347
295 299 300 301 300 301 306 305 307 309 314 317 318 318 317 316 316 317 319 320 320 320 321 322 324 325 326 325 325 326 326 327 328 329 334 338 339 338 338 338 339 340 339 340 342 346 346 346 346
300 300 300 300 299 302 304 306 308 310 315 315 315 314 315 316 316 316 316 317 318 320 319 322 322 324 324 323 323 324 325 326 326 327 328 330 331 333 333 332 333 333 331 333 340 342 343 343 343
301 298 298 299 300 300 306 299 303 312 314 313 313 315 315 316 317 316 316 316 316 318 319 320 320 322 321 321 322 323 324 325 324 325 327 328 328 328 329 331 330 330 329 330 337 339 341 340 341
297 295 292 297 302 302 301 294 303 309 312 311 313 315 315 315 316 316 318 317 317 318 317 319 324 320 320 320 320 322 322 322 323 323 324 326 328 329 327 327 330 334 334 335 336 339 339 340 340
295 291 292 296 302 301 300 296 304 306 309 310 311 313 314 314 314 316 318 317 317 317 317 317 319 318 322 321 321 320 321 320 321 321 321 322 325 329 323 325 327 328 328 331 337 340 339 337 334
291 291 292 293 297 299 297 298 302 305 306 308 309 312 313 313 314 316 317 316 316 317 316 316 318 318 321 320 320 320 320 321 320 318 319 321 322 326 321 323 323 324 325 325 329 333 337 335 336
295 293 293 296 300 297 295 295 301 304 302 304 308 310 311 313 315 316 317 316 316 316 316 317 317 317 319 317 316 317 316 318 318 318 320 320 321 322 320 320 320 320 319 322 326 329 331 332 335
296 294 293 297 299 296 294 295 297 300 303 303 307 308 310 310 312 314 314 314 315 314 315 315 315 315 318 317 317 318 318 319 317 318 318 319 320 320 320 318 318 317 317 320 322 323 324 327 329
294 293 293 293 296 295 293 292 293 303 305 305 307 308 308 308 309 309 312 313 312 312 313 313 314 316 316 318 318 317 315 314 313 314 316 317 320 321 320 318 317 316 316 317 319 321 323 324 327
290 297 296 295 292 288 293 284 289 300 301 302 305 305 306 306 307 307 309 308 310 312 312 312 314 314 316 317 315 313 310 308 310 312 314 315 316 316 318 319 318 315 316 315 318 321 320 323 323
294 297 294 294 289 287 289 286 288 300 298 299 302 305 305 305 305 305 305 307 308 308 307 312 312 313 313 314 313 310 308 309 311 310 308 308 310 313 316 316 316 314 313 316 314 316 313 316 319
298 296 295 292 288 284 288 288 288 295 299 300 303 305 307 308 303 304 306 305 304 306 311 312 312 312 311 311 311 308 306 306 305 306 305 306 306 307 309 312 311 310 311 311 312 311 312 314 315
294 290 283 282 283 283 290 290 290 299 304 304 304 306 308 303 301 302 302 303 306 308 309 311 308 308 309 309 308 307 305 305 304 303 303 303 303 304 306 307 307 308 307 308 308 308 309 312 314
291 290 283 277 278 282 292 288 294 303 306 307 307 303 302 301 302 300 301 303 306 308 308 308 308 307 307 307 305 305 304 304 303 302 302 302 303 303 305 306 307 307 309 307 307 308 313 314 314
294 290 293 287 287 284 287 294 301 302 302 303 302 303 301 301 301 302 303 304 307 307 308 308 307 305 305 304 303 302 301 300 300 300 301 303 303 303 304 304 305 305 306 306 306 308 308 307 309
296 300 290 288 281 280 285 288 290 297 300 302 301 302 301 300 300 301 303 306 307 307 308 307 305 303 303 302 300 299 298 298 299 300 299 299 300 301 301 301 303 305 307 307 307 308 309 308 308
290 288 292 291 287 280 278 285 296 299 301 301 301 302 300 297 299 302 305 307 307 307 306 304 302 301 299 298 297 297 297 299 299 298 299 300 300 301 301 302 303 304 305 307 307 308 309 309 310
293 291 292 286 285 284 283 285 299 300 301 300 302 301 299 299 301 305 306 307 306 304 303 301 300 298 296 296 296 296 298 297 296 297 298 299 299 300 301 302 303 304 305 306 306 307 309 310 312
Wind_Speed
5 7 1 4 5 6 4 2 3 3 2 2 5 4 5 4 3 5 6 11 6 5 7 6 8 5 5 6 6 7 8 10 10 10 10 10 10 11 10 9 8 9 9 8 8 7 6 7 7
4 3 5 3 7 5 6 3 3 5 1 8 5 3 3 2 2 3 6 5 7 3 5 7 8 8 8 7 7 6 7 9 10 10 9 9 8 8 9 8 7 8 8 7 7 7 7 7 8
2 3 5 6 4 2 4 3 4 4 10 2 3 6 3 2 4 3 6 5 7 2 4 6 9 8 7 9 9 8 7 8 9 10 9 8 8 7 6 6 5 6 6 6 6 5 5 6 7
3 6 6 6 2 5 5 4 9 4 6 7 6 8 5 5 2 2 7 6 7 5 3 6 6 4 5 5 6 9 9 10 10 10 11 10 9 7 7 7 7 7 7 7 7 7 6 7 7
5 4 6 2 4 6 6 1 19 7 4 8 3 3 3 5 4 8 11 10 8 8 7 7 7 4 3 2 4 5 7 8 10 11 11 11 11 12 11 11 10 10 10 10 9 9 9 9 9
5 4 6 2 5 5 7 5 8 12 15 14 9 6 2 6 10 8 11 13 9 11 8 6 6 5 2 1 3 5 5 6 7 8 10 10 11 11 10 11 12 12 11 11 11 10 10 10 10
7 5 3 2 4 7 3 5 3 10 11 8 3 6 2 7 9 10 11 13 12 10 8 5 5 5 2 2 3 4 5 6 7 7 8 10 10 11 11 11 11 11 11 12 12 12 12 12 12
6 6 3 2 3 3 8 4 2 6 4 1 5 4 2 3 9 15 13 14 15 11 10 9 6 6 5 3 4 4 5 6 7 8 9 9 10 11 12 12 12 13 13 14 14 14 14 13 13
4 6 1 3 3 4 7 20 18 13 20 16 10 9 8 16 12 13 13 12 8 8 7 6 6 5 5 1 3 4 6 7 8 7 9 8 4 6 9 11 14 15 15 15 15 15 14 14 14
6 4 6 5 1 3 4 9 6 12 18 15 15 14 15 13 12 12 10 7 5 6 7 6 8 9 8 8 6 5 5 4 5 5 6 5 5 5 8 11 15 15 16 16 16 16 16 14 7
3 5 5 4 4 3 7 6 3 17 9 12 18 14 12 14 10 12 7 6 6 4 5 6 7 7 7 6 4 3 3 3 3 5 6 5 5 4 4 3 4 4 10 7 9 9 8 9 7
2 5 6 4 3 2 6 8 5 7 9 18 18 14 10 13 11 11 9 7 6 7 5 4 5 6 7 4 4 4 4 4 5 7 8 4 3 5 5 4 5 4 5 7 6 6 8 9 9
4 3 6 3 4 7 8 5 10 9 8 11 17 14 13 11 8 7 7 7 7 7 4 4 4 4 4 5 4 5 5 4 5 5 6 5 5 5 4 5 5 5 4 5 5 7 7 8 9
3 1 3 5 4 6 9 8 7 7 7 8 11 12 11 14 9 6 5 7 6 6 5 4 4 4 2 1 1 3 3 5 4 4 5 7 4 5 4 5 6 7 6 5 6 8 9 9 5
1 2 4 2 4 4 12 3 6 13 8 10 7 7 8 9 9 9 8 9 10 7 8 8 7 5 5 4 3 2 3 3 4 4 5 6 6 6 5 4 4 6 6 8 7 8 6 5 6
4 5 4 5 6 3 6 7 4 9 12 9 8 7 8 8 9 7 8 7 6 5 5 4 4 6 6 5 4 3 3 2 2 4 4 5 5 6 5 5 5 6 7 7 6 6 7 8 7
7 1 3 7 9 5 4 5 5 9 9 11 9 7 7 6 4 6 8 8 8 7 7 4 3 3 2 2 2 2 2 1 1 2 3 5 5 4 5 4 5 6 5 6 6 8 7 7 6
3 1 4 5 4 5 4 5 2 7 9 12 9 7 7 6 9 9 8 7 6 7 6 4 4 5 4 3 4 3 3 4 3 3 3 5 4 5 4 4 5 4 5 6 6 8 6 7 10
3 2 3 4 2 4 5 4 8 8 4 8 8 8 7 8 7 7 4 4 5 6 4 6 6 6 4 2 2 3 4 3 3 4 5 5 5 6 5 4 5 5 4 6 7 7 7 5 6
4 2 4 2 6 3 3 4 3 1 6 6 11 8 8 5 6 7 5 6 9 4 8 9 8 6 5 3 3 2 3 4 4 4 6 6 6 6 6 6 5 6 5 5 5 5 5 4 4
4 5 2 0 5 4 4 7 4 4 4 5 5 5 4 8 8 4 6 7 4 7 9 8 7 7 5 5 1 2 2 3 3 4 4 5 7 7 7 7 6 7 5 5 5 5 5 6 4
4 3 3 3 5 3 4 6 4 5 5 3 8 6 4 2 5 3 4 4 7 9 5 4 5 4 3 2 2 2 2 3 3 3 4 6 8 11 11 10 7 7 5 6 5 4 3 5 8
6 2 2 2 4 2 2 4 6 3 3 1 1 4 2 4 5 4 6 8 3 5 6 3 3 1 3 5 4 3 4 3 4 4 8 11 10 10 11 12 10 6 5 7 6 5 5 4 6
4 4 7 5 4 4 3 4 5 4 7 3 3 3 3 3 2 4 2 5 5 5 3 3 2 5 7 6 5 4 6 8 6 9 10 10 9 9 10 10 8 8 7 7 6 6 7 7 7
7 7 4 5 5 7 2 2 7 5 5 5 5 4 5 4 2 4 3 4 1 3 6 6 7 4 5 5 6 7 7 9 11 12 11 12 11 10 11 9 9 8 7 6 9 10 9 10 8
4 8 8 5 3 5 5 3 5 3 4 4 6 4 2 1 3 2 2 2 4 6 6 6 6 6 7 7 7 7 11 9 10 11 11 11 11 10 12 12 15 15 10 9 11 8 8 7 7
3 2 4 8 3 2 3 4 6 1 3 4 6 5 2 3 3 6 5 5 6 5 5 6 7 7 7 7 10 11 10 13 12 14 12 11 12 12 13 14 16 17 16 12 12 10 10 7 8
4 8 3 4 3 4 4 4 6 7 9 9 7 7 2 1 5 5 6 5 4 5 4 7 6 6 8 8 10 11 12 13 13 13 15 15 14 15 15 14 15 15 13 11 12 10 11 8 8
2 1 6 5 5 7 2 7 8 11 12 11 9 6 1 2 4 4 4 3 5 5 6 6 6 7 10 12 12 12 13 14 13 13 14 15 16 15 15 15 15 14 14 13 12 12 12 11 10
4 7 6 7 5 3 4 9 2 9 7 5 6 3 3 5 4 4 4 5 6 7 5 6 7 10 12 12 13 17 14 15 15 15 15 16 16 15 16 15 15 15 15 13 13 13 11 11 10
Wind_Direction
331 309 106 44 50 60 299 327 296 106 197 66 118 142 155 32 170 194 4 57 17 82 128 137 135 154 139 116 111 115 120 118 116 116 116 117 120 122 123 124 125 132 141 142 146 153 161 165 166
326 332 42 72 75 44 293 301 26 216 237 109 103 123 80 44 355 10 49 353 152 160 148 126 150 164 160 147 138 133 134 129 128 126 126 125 126 133 135 136 140 147 158 167 170 172 178 186 187
309 40 73 84 105 181 242 116 108 115 151 177 84 39 70 323 317 181 196 152 110 126 111 130 156 169 170 161 149 149 148 146 143 143 141 143 148 148 150 150 157 169 179 184 192 201 205 209 208
41 11 33 78 260 258 222 151 169 162 304 274 148 67 77 316 253 28 30 85 91 70 126 156 143 163 159 167 170 165 167 167 163 164 162 165 170 175 176 184 187 197 203 206 209 212 219 232 240
36 53 52 35 285 278 286 276 150 164 175 106 142 86 64 299 324 2 49 78 94 81 44 25 53 48 53 227 223 203 189 184 179 178 181 183 185 187 192 197 208 212 217 222 223 223 222 227 232
41 94 55 326 299 292 316 26 112 103 93 99 86 94 29 14 22 25 54 62 61 79 79 61 58 46 44 254 250 242 225 210 207 199 196 198 202 206 211 215 214 216 221 226 228 226 231 236 239
104 78 188 257 282 340 36 12 54 105 96 43 101 84 17 7 360 64 60 56 51 55 56 49 42 3 350 279 253 252 245 252 247 233 224 218 219 218 219 223 229 230 230 232 232 232 233 233 236
107 89 14 307 317 322 343 59 90 55 35 99 358 67 82 88 71 62 44 45 62 45 40 28 12 358 301 259 254 256 261 260 257 256 251 245 242 236 239 235 233 235 238 240 239 235 234 237 240
124 61 359 300 21 341 345 88 63 72 83 56 70 77 104 132 96 73 61 42 40 42 35 24 25 342 347 333 329 309 305 294 281 276 268 263 256 258 250 247 245 244 242 240 243 247 249 248 246
88 96 229 204 259 96 86 101 123 94 87 82 89 85 90 96 88 93 91 88 81 46 28 12 24 23 22 36 28 11 332 323 313 296 282 278 271 264 263 262 261 256 252 251 248 243 243 248 247
153 184 203 265 144 185 105 53 73 117 100 141 133 131 128 123 109 100 94 96 101 111 72 35 34 31 36 24 15 16 352 342 316 306 290 288 287 276 266 274 272 270 262 255 256 254 243 239 234
196 224 185 238 156 114 114 135 69 123 164 158 143 141 135 131 131 134 133 127 105 87 92 67 57 50 31 24 22 9 10 355 352 339 324 300 286 279 273 257 266 262 263 259 245 242 241 236 233
193 231 184 183 147 109 99 94 128 147 152 142 147 153 147 130 125 115 124 123 129 117 117 104 92 74 65 43 4 356 356 352 332 334 327 324 309 296 288 285 276 274 264 252 259 253 249 242 236
311 357 114 171 222 125 114 136 108 235 164 149 147 149 145 139 150 136 146 162 165 154 161 169 160 159 145 126 324 318 331 329 340 336 338 343 329 312 299 290 290 288 282 272 255 253 253 245 234
286 41 358 156 199 124 117 263 185 168 162 146 154 147 135 135 143 151 167 157 163 166 164 173 170 179 172 182 194 233 294 339 338 324 329 332 341 337 326 312 296 289 287 279 267 253 246 243 237
44 49 21 284 146 158 125 253 172 170 153 161 173 166 149 167 158 173 180 177 197 142 165 180 157 163 171 177 185 184 202 233 292 323 328 332 336 343 352 340 333 331 318 307 285 272 255 248 234
6 233 249 307 199 134 118 242 206 164 171 169 182 174 168 158 172 217 206 188 190 184 181 208 238 265 278 312 323 323 312 268 273 299 312 322 326 330 342 320 319 325 319 321 300 293 256 250 237
232 354 280 236 257 152 146 225 244 182 173 183 179 177 176 168 208 218 219 205 196 204 184 205 215 244 265 302 321 312 317 313 310 300 284 298 301 307 323 305 302 307 314 316 319 311 290 254 264
171 221 271 293 63 112 177 200 227 203 183 175 176 178 178 198 236 242 234 229 208 226 196 214 210 222 203 241 258 297 275 292 290 297 295 297 281 285 292 283 297 304 302 294 302 302 299 295 258
60 28 314 315 6 89 150 258 339 269 247 184 170 173 189 227 248 248 251 219 216 208 220 229 220 210 211 205 220 217 251 274 272 286 299 296 297 295 289 286 279 279 289 292 289 298 296 264 238
33 120 7 76 345 31 60 335 360 320 340 130 124 153 186 217 224 224 207 210 217 232 230 232 218 210 220 226 310 302 293 299 312 309 301 304 311 294 276 261 263 274 257 260 269 276 275 285 282
162 211 138 74 53 241 52 266 304 327 352 81 134 143 169 184 175 187 189 232 227 240 271 253 210 207 241 250 263 270 268 273 252 264 266 290 293 291 286 277 254 244 259 267 237 260 265 299 300
203 171 37 115 126 91 277 81 266 348 14 317 190 177 11 342 130 202 229 231 275 333 294 245 170 219 319 8 10 337 316 279 281 288 294 298 284 270 272 276 273 256 246 262 265 251 248 243 268
103 76 44 48 64 15 258 122 285 194 205 228 240 253 266 293 259 286 257 4 329 339 25 94 78 36 23 24 8 338 312 302 295 298 294 289 286 287 273 264 266 271 264 257 253 255 255 250 248
72 58 350 1 10 222 273 100 239 276 218 197 189 248 273 1 290 306 289 327 47 43 48 47 37 27 1 356 334 325 310 291 283 290 291 291 292 288 284 268 264 264 265 259 274 271 259 257 248
163 145 151 192 209 270 314 261 259 296 187 209 192 196 329 304 289 206 97 84 51 55 35 43 24 356 347 344 327 307 296 291 293 292 298 292 287 284 286 284 285 280 265 277 273 266 261 260 279
183 142 173 105 13 46 267 301 327 280 263 224 220 206 220 340 167 140 60 57 73 48 35 26 3 350 345 323 311 305 303 307 302 301 297 298 297 299 293 298 294 281 274 264 261 260 248 245 255
141 155 76 15 148 242 289 268 229 209 230 237 237 224 338 233 138 78 69 85 63 48 25 16 12 330 306 305 311 313 314 307 304 299 307 301 295 290 289 283 279 277 275 263 259 262 265 241 248
53 127 56 115 136 165 209 259 214 204 214 217 226 228 161 106 88 85 94 72 46 34 19 7 330 311 323 324 322 317 310 311 316 307 304 303 298 294 288 283 278 278 276 268 261 257 258 254 247
183 201 143 129 225 218 153 273 278 227 220 208 210 88 100 94 93 88 51 21 27 14 343 334 331 333 329 326 321 324 317 323 323 311 306 302 298 295 290 285 279 274 269 263 257 254 252 256 255